ludijogos.com alexa rank chart, ludijogos.com alexa rank daily changes

ludijogos.com alexa rank chart, ludijogos.com alexa rank daily changes

ludijogos.com
Actual rank:
54 728

RANK HISTORY

Date Rank Diff
2017/12/13 54 728 +847
2017/12/12 53 881 +484
2017/12/11 53 397 -230
2017/12/10 53 627 -193
2017/12/09 53 820 -188
2017/12/08 54 008 -232
2017/12/07 54 240 +172
2017/12/06 54 068 +538
2017/12/05 53 530 +487
2017/12/04 53 043 -356
2017/12/03 53 399 +82
2017/12/02 53 317 -8
2017/12/01 53 325 +853
2017/11/30 52 472 +374
2017/11/29 52 098 +194
2017/11/28 51 904 -125
2017/11/27 52 029 -308
2017/11/26 52 337 +638
2017/11/25 51 699 +395
2017/11/24 51 304 +637
2017/11/23 50 667 +821
2017/11/22 49 846 +624
2017/11/21 49 222 -5
2017/11/20 49 227 -310
2017/11/19 49 537 +585
2017/11/18 48 952 -174
2017/11/17 49 126 +72
2017/11/16 49 054 +366
2017/11/15 48 688 +115
2017/11/14 48 573 +849
2017/11/13 47 724 +124
2017/11/12 47 600 -87
2017/11/11 47 687 +882
2017/11/10 46 805 +630
2017/11/09 46 175 +504
2017/11/08 45 671 +479
2017/11/07 45 192 +251
2017/11/06 44 941 -308
2017/11/05 45 249 -300
2017/11/04 45 549 +53
2017/11/03 45 496 +44
2017/11/02 45 452 +606
2017/11/01 44 846 +51
2017/10/31 44 795 +222
2017/10/30 44 573 -385
2017/10/29 44 958 -499
2017/10/28 45 457 +35
2017/10/27 45 422 -61
2017/10/26 45 483 -243
2017/10/25 45 726 +824
2017/10/24 44 902 -261
2017/10/23 45 163 -453
2017/10/22 45 616 -429
2017/10/21 46 045 -236
2017/10/20 46 281 +19
2017/10/19 46 262 -12
2017/10/18 46 274 +651
2017/10/17 45 623 +88
2017/10/16 45 535 -878
2017/10/14 46 413

WIDGET FOR YOUR SITE

DOMAINS WITH THE NEAREST RANK

Domain Rank
autotheme.info 54 723
eroticage.net 54 724
referralkey.com 54 725
mingw.org 54 726
lotto-bayern.de 54 727
ludijogos.com 54 728
thepunctuationguide.com 54 729
mamadu.pl 54 730
greatminds.org 54 731
unogoal.me 54 732
eastcoastdaily.com 54 733

DOMAINS WITH THE NEAREST RANK BY TLD .com

Domain Rank
101.com 54 715
d-doujin.com 54 718
littlecaesars.com 54 720
wkhpe.com 54 722
referralkey.com 54 725
ludijogos.com 54 728
thepunctuationguide.com 54 729
eastcoastdaily.com 54 733
xfznw.com 54 734
bpm-power.com 54 735
jackboxgames.com 54 738